Other Surface Observations
Issued by NWS Jacksonville, FL

Home | Current Version | Previous Version | Text Only | Print | Product List | Glossary On
Versions: 1 2 3 4 5 6 7 8 9 10 11 12 13 14 15 16 17 18 19 20 21 22 23 24 25 26 27 28 29 30 31 32 33 34 35 36 37 38 39 40 41 42 43 44 45 46 47 48 49 50
000
SXUS52 KJAX 282210
OSOJAX
OTHER SURFACE OBSERVATIONS
NATIONAL WEATHER SERVICE JACKSONVILLE FL
600 PM EDT MON JUL 28 2014

FLZ020>025-030>033-035>038-040-282300-
...FLORIDA...

CITY           SKY/WX    TMP DP  RH WIND       PRES   REMARKS
CECIL FIELD    MOSUNNY   90  73  58 SW14      29.90F
HERLONG FIELD  NOT AVBL
FERNANDINA BCH NOT AVBL
LAKE CITY      FAIR      88  77  70 MISG      29.93F HX 100
JUNIPER SPGS   NOT AVBL
BUNNELL        CLEAR     88  75  66 SW6       29.92F
KEYSTONE HGTS  FAIR      91  77  62 W12G18    29.93F HX 105
$$

GAZ132>136-149>154-162>166-282300-
...GEORGIA...

CITY           SKY/WX    TMP DP  RH WIND       PRES   REMARKS
JESUP          FAIR      97  77  52 W3        29.85S HX 112
HOMERVILLE     FAIR      97  73  46 W13       29.89R HX 107
SWAINSBORO     FAIR      93  79  62 SW12G20   29.85S HX 110
CORDELE        NOT AVBL
$$

PLEASE NOTE:  THESE OBSERVATIONS ARE NOT QUALITY CONTROLLED AND MAY
NOT BE AVAILABLE AT ALL TIMES.
$$



USA.gov is the U.S. government's official web portal to all federal, state and local government web resources and services.